TimeCDT,TemperatureF,Dew PointF,Humidity,Sea Level PressureIn,VisibilityMPH,Wind Direction,Wind SpeedMPH,Gust SpeedMPH,PrecipitationIn,Events,Conditions,WindDirDegrees,DateUTC
12:52 AM,79.0,48.9,35,29.67,10.0,WSW,19.6,32.2,N/A,,Clear,240,2013-05-15 05:52:00
1:52 AM,78.1,48.0,35,29.68,10.0,WSW,18.4,33.4,N/A,,Clear,250,2013-05-15 06:52:00
2:52 AM,77.0,48.9,37,29.70,10.0,WSW,17.3,28.8,N/A,,Clear,250,2013-05-15 07:52:00
3:52 AM,73.0,51.1,46,29.74,10.0,West,9.2,-,N/A,,Clear,260,2013-05-15 08:52:00
4:52 AM,70.0,51.1,51,29.76,10.0,SW,9.2,-,N/A,,Partly Cloudy,220,2013-05-15 09:52:00
5:52 AM,66.0,51.1,59,29.78,10.0,WSW,5.8,-,N/A,,Clear,250,2013-05-15 10:52:00
6:52 AM,66.9,53.1,61,29.79,10.0,WSW,5.8,-,N/A,,Clear,240,2013-05-15 11:52:00
7:52 AM,69.1,51.1,53,29.81,10.0,West,8.1,-,N/A,,Clear,280,2013-05-15 12:52:00
8:52 AM,72.0,52.0,49,29.84,10.0,WNW,8.1,-,N/A,,Clear,290,2013-05-15 13:52:00
9:52 AM,75.0,48.9,40,29.83,10.0,NNW,6.9,-,N/A,,Clear,330,2013-05-15 14:52:00
10:52 AM,75.9,51.1,42,29.84,10.0,NNW,5.8,-,N/A,,Clear,330,2013-05-15 15:52:00
11:52 AM,-9999,-9999,N/A,29.85,10.0,North,8.1,-,N/A,,Clear,10,2013-05-15 16:52:00
12:52 PM,78.1,52.0,40,29.84,10.0,NNW,10.4,-,N/A,,Clear,340,2013-05-15 17:52:00
1:52 PM,80.1,48.0,32,29.84,-9999.0,Calm,Calm,-,N/A,,Clear,0,2013-05-15 18:52:00
2:52 PM,82.0,52.0,35,29.82,10.0,NNW,8.1,-,N/A,,Clear,340,2013-05-15 19:52:00
3:52 PM,78.1,46.0,32,29.83,10.0,NW,5.8,-,N/A,,Partly Cloudy,310,2013-05-15 20:52:00
4:52 PM,81.0,46.0,29,29.80,10.0,Calm,Calm,-,N/A,,Clear,0,2013-05-15 21:52:00
5:52 PM,81.0,46.0,29,29.81,10.0,Calm,Calm,-,N/A,,Clear,0,2013-05-15 22:52:00
6:52 PM,77.0,48.9,37,29.81,10.0,SW,3.5,-,N/A,,Clear,230,2013-05-15 23:52:00
7:52 PM,73.9,48.9,41,29.81,7.0,SSW,3.5,-,N/A,,Clear,200,2013-05-16 00:52:00
8:52 PM,64.9,53.1,65,29.83,10.0,Calm,Calm,-,N/A,,Clear,0,2013-05-16 01:52:00
9:52 PM,63.0,52.0,67,29.85,10.0,Calm,Calm,-,N/A,,Clear,0,2013-05-16 02:52:00
10:52 PM,61.0,53.1,75,29.85,10.0,Calm,Calm,-,N/A,,Clear,0,2013-05-16 03:52:00
11:52 PM,59.0,52.0,78,29.85,10.0,Calm,Calm,-,N/A,,Clear,0,2013-05-16 04:52:00